| time (UTC) | temp C | wind direction | speed KPH | gust KPH | rain 1hr cm | rain 24hr cm | rain mn cm | humidity % | barometer mb |
| 20260502211003 | 11 | 96 | 1.6 | 3.2 | 0.23 | 0.23 | 0.23 | 87 | 1012.9 |
| 20260502210503 | 11 | 93 | 1.6 | 3.2 | 0.20 | 0.20 | 0.20 | 86 | 1013.0 |
| 20260502210003 | 11 | 91 | 1.6 | 4.8 | 0.18 | 0.18 | 0.18 | 86 | 1013.1 |
| 20260502205503 | 11 | 89 | 1.6 | 4.8 | 0.15 | 0.15 | 0.15 | 86 | 1013.0 |
| 20260502205003 | 11 | 92 | 1.6 | 3.2 | 0.13 | 0.13 | 0.13 | 86 | 1013.0 |
| 20260502204503 | 11 | 93 | 1.6 | 3.2 | 0.13 | 0.13 | 0.13 | 85 | 1013.1 |
| 20260502204003 | 11 | 93 | 1.6 | 3.2 | 0.10 | 0.10 | 0.10 | 85 | 1013.1 |
| 20260502203524 | 11 | 93 | 1.6 | 4.8 | 0.08 | 0.08 | 0.08 | 85 | 1013.1 |
| 20260502203004 | 11 | 93 | 1.6 | 4.8 | 0.08 | 0.08 | 0.08 | 84 | 1013.2 |
| 20260502202524 | 11 | 95 | 1.6 | 4.8 | 0.05 | 0.05 | 0.05 | 83 | 1013.3 |
| 20260502202024 | 11 | 96 | 3.2 | 4.8 | 0.05 | 0.05 | 0.05 | 82 | 1013.2 |
| 20260502201503 | 12 | 94 | 3.2 | 6.4 | 0.03 | 0.03 | 0.03 | 80 | 1013.4 |
| 20260502201003 | 12 | 91 | 3.2 | 6.4 | 0.00 | 0.00 | 0.00 | 78 | 1013.2 |
| 20260502200503 | 12 | 90 | 1.6 | 6.4 | 0.00 | 0.00 | 0.00 | 76 | 1013.1 |
| 20260502200024 | 12 | 89 | 1.6 | 4.8 | 0.00 | 0.00 | 0.00 | 76 | 1013.2 |
| 20260502195503 | 12 | 88 | 1.6 | 4.8 | 0.00 | 0.00 | 0.00 | 74 | 1013.3 |
| 20260502195003 | 12 | 87 | 1.6 | 4.8 | 0.00 | 0.00 | 0.00 | 73 | 1013.3 |
| 20260502194504 | 13 | 72 | 1.6 | 4.8 | 0.00 | 0.00 | 0.00 | 72 | 1013.3 |
| 20260502194003 | 13 | 10 | 0.0 | 4.8 | 0.00 | 0.03 | 0.00 | 70 | 1013.2 |
| 20260502193524 | 13 | 352 | 1.6 | 3.2 | 0.00 | 0.03 | 0.00 | 70 | 1013.1 |
| 20260502193024 | 13 | 353 | 0.0 | 3.2 | 0.00 | 0.05 | 0.00 | 70 | 1013.0 |
| 20260502192503 | 13 | 17 | 1.6 | 4.8 | 0.00 | 0.08 | 0.00 | 69 | 1012.9 |
| 20260502192003 | 13 | 19 | 1.6 | 9.7 | 0.00 | 0.08 | 0.00 | 69 | 1013.1 |
| 20260502191524 | 13 | 25 | 1.6 | 9.7 | 0.00 | 0.08 | 0.00 | 68 | 1013.1 |
| 20260502191003 | 13 | 28 | 1.6 | 6.4 | 0.00 | 0.08 | 0.00 | 69 | 1012.9 |
| 20260502190503 | 13 | 10 | 1.6 | 4.8 | 0.00 | 0.08 | 0.00 | 68 | 1013.0 |
| 20260502190004 | 13 | 355 | 1.6 | 6.4 | 0.00 | 0.08 | 0.00 | 68 | 1013.1 |
| 20260502185503 | 13 | 357 | 1.6 | 6.4 | 0.00 | 0.08 | 0.00 | 68 | 1013.1 |
| 20260502185024 | 13 | 345 | 1.6 | 6.4 | 0.00 | 0.08 | 0.00 | 68 | 1013.1 |
| 20260502184503 | 13 | 330 | 1.6 | 6.4 | 0.00 | 0.08 | 0.00 | 67 | 1013.3 |
| 20260502184003 | 13 | 346 | 1.6 | 4.8 | 0.00 | 0.08 | 0.00 | 66 | 1013.1 |
| 20260502183503 | 14 | 30 | 1.6 | 6.4 | 0.00 | 0.08 | 0.00 | 65 | 1013.2 |
| 20260502182524 | 14 | 12 | 1.6 | 3.2 | 0.00 | 0.08 | 0.00 | 65 | 1013.3 |
| 20260502182024 | 14 | 82 | 1.6 | 6.4 | 0.00 | 0.08 | 0.00 | 65 | 1013.5 |
| 20260502181503 | 14 | 76 | 1.6 | 6.4 | 0.00 | 0.08 | 0.00 | 65 | 1013.4 |
| 20260502181024 | 14 | 48 | 0.0 | 1.6 | 0.00 | 0.08 | 0.00 | 63 | 1013.3 |
| 20260502180503 | 15 | 48 | 0.0 | 3.2 | 0.00 | 0.08 | 0.00 | 63 | 1013.3 |
| 20260502164003 | 15 | 320 | 1.6 | 4.8 | 0.00 | 0.08 | 0.00 | 61 | 1013.7 |
| 20260502163503 | 15 | 310 | 1.6 | 4.8 | 0.00 | 0.08 | 0.00 | 61 | 1013.9 |
| 20260502163003 | 15 | 304 | 1.6 | 4.8 | 0.00 | 0.08 | 0.00 | 61 | 1014.1 |
| 20260502162524 | 15 | 305 | 1.6 | 4.8 | 0.00 | 0.08 | 0.00 | 62 | 1014.0 |
| 20260502162024 | 15 | 301 | 3.2 | 6.4 | 0.00 | 0.08 | 0.00 | 61 | 1014.1 |
| 20260502161503 | 15 | 298 | 3.2 | 6.4 | 0.00 | 0.08 | 0.00 | 62 | 1013.9 |
| 20260502161004 | 15 | 307 | 1.6 | 6.4 | 0.00 | 0.08 | 0.00 | 62 | 1014.1 |
| 20260502160503 | 15 | 338 | 1.6 | 6.4 | 0.00 | 0.08 | 0.00 | 61 | 1014.0 |
| 20260502152003 | 16 | 312 | 3.2 | 9.7 | 0.00 | 0.08 | 0.00 | 59 | 1014.3 |
| 20260502151524 | 16 | 283 | 1.6 | 9.7 | 0.00 | 0.08 | 0.00 | 56 | 1014.5 |
| 20260502151003 | 16 | 213 | 1.6 | 3.2 | 0.00 | 0.08 | 0.00 | 56 | 1014.6 |
| 20260502150524 | 16 | 209 | 1.6 | 4.8 | 0.00 | 0.08 | 0.00 | 56 | 1014.8 |
| 20260502130503 | 13 | 296 | 1.6 | 6.4 | 0.00 | 0.08 | 0.00 | 67 | 1015.9 |
| 20260502123503 | 13 | 273 | 3.2 | 9.7 | 0.00 | 0.08 | 0.00 | 68 | 1016.3 |
| 20260502123003 | 13 | 280 | 3.2 | 6.4 | 0.00 | 0.08 | 0.00 | 70 | 1016.3 |
| 20260502122503 | 13 | 292 | 3.2 | 9.7 | 0.00 | 0.08 | 0.00 | 70 | 1016.2 |
| 20260502122003 | 13 | 250 | 3.2 | 9.7 | 0.00 | 0.08 | 0.00 | 71 | 1016.3 |
| 20260502121503 | 13 | 235 | 3.2 | 6.4 | 0.00 | 0.08 | 0.00 | 70 | 1016.3 |
| 20260502121004 | 13 | 248 | 3.2 | 6.4 | 0.00 | 0.08 | 0.00 | 71 | 1016.7 |
| 20260502120503 | 13 | 259 | 1.6 | 4.8 | 0.00 | 0.08 | 0.00 | 70 | 1016.5 |
| 20260502115503 | 12 | 274 | 1.6 | 4.8 | 0.00 | 0.08 | 0.00 | 71 | 1016.8 |
| 20260502115003 | 12 | 271 | 3.2 | 4.8 | 0.00 | 0.08 | 0.00 | 70 | 1016.7 |
| 20260502114024 | 12 | 275 | 3.2 | 6.4 | 0.00 | 0.08 | 0.00 | 70 | 1016.9 |
| 20260502113503 | 12 | 269 | 3.2 | 6.4 | 0.00 | 0.08 | 0.00 | 70 | 1016.7 |
| 20260502113004 | 13 | 270 | 3.2 | 11.3 | 0.00 | 0.08 | 0.00 | 70 | 1016.7 |
| 20260502112503 | 13 | 277 | 3.2 | 11.3 | 0.00 | 0.08 | 0.00 | 69 | 1016.7 |
| 20260502112024 | 13 | 261 | 3.2 | 14.5 | 0.00 | 0.08 | 0.00 | 70 | 1016.8 |
| 20260502111503 | 13 | 264 | 3.2 | 14.5 | 0.00 | 0.08 | 0.00 | 70 | 1016.6 |
| 20260502111003 | 12 | 278 | 3.2 | 6.4 | 0.00 | 0.08 | 0.00 | 70 | 1016.7 |
| 20260502110524 | 12 | 255 | 3.2 | 6.4 | 0.00 | 0.08 | 0.00 | 69 | 1016.6 |
| 20260502110004 | 12 | 241 | 3.2 | 6.4 | 0.00 | 0.08 | 0.00 | 70 | 1016.6 |
| 20260502105503 | 12 | 246 | 3.2 | 6.4 | 0.00 | 0.08 | 0.00 | 72 | 1016.7 |
| 20260502105024 | 12 | 260 | 3.2 | 6.4 | 0.00 | 0.08 | 0.00 | 70 | 1016.7 |
| 20260502104503 | 12 | 266 | 3.2 | 6.4 | 0.00 | 0.08 | 0.00 | 72 | 1016.6 |
| 20260502104003 | 12 | 266 | 3.2 | 6.4 | 0.00 | 0.08 | 0.00 | 72 | 1017.0 |
| 20260502103524 | 12 | 275 | 3.2 | 6.4 | 0.00 | 0.08 | 0.00 | 74 | 1017.0 |
| 20260502103003 | 12 | 283 | 3.2 | 6.4 | 0.00 | 0.08 | 0.00 | 74 | 1017.2 |
| 20260502102503 | 12 | 292 | 3.2 | 6.4 | 0.00 | 0.08 | 0.00 | 74 | 1016.9 |
| 20260502102003 | 11 | 286 | 3.2 | 9.7 | 0.00 | 0.08 | 0.00 | 74 | 1017.1 |
| 20260502101503 | 11 | 280 | 4.8 | 9.7 | 0.00 | 0.08 | 0.00 | 75 | 1016.9 |
| 20260502101024 | 11 | 281 | 4.8 | 9.7 | 0.00 | 0.08 | 0.00 | 75 | 1017.0 |
| 20260502100524 | 11 | 274 | 4.8 | 9.7 | 0.00 | 0.08 | 0.00 | 76 | 1017.2 |
| 20260502091503 | 10 | 239 | 3.2 | 6.4 | 0.00 | 0.08 | 0.00 | 83 | 1017.4 |
| 20260502091003 | 10 | 253 | 3.2 | 9.7 | 0.00 | 0.08 | 0.00 | 83 | 1017.4 |
| 20260502090504 | 10 | 266 | 3.2 | 9.7 | 0.00 | 0.08 | 0.00 | 83 | 1017.3 |
| 20260502071503 | 9 | 249 | 1.6 | 4.8 | 0.00 | 0.08 | 0.00 | 91 | 1017.5 |
| 20260502071003 | 9 | 237 | 1.6 | 3.2 | 0.00 | 0.08 | 0.00 | 91 | 1017.4 |
| 20260502070503 | 9 | 229 | 0.0 | 3.2 | 0.00 | 0.08 | 0.00 | 91 | 1017.2 |
| 20260502070003 | 9 | 228 | 1.6 | 4.8 | 0.00 | 0.08 | 0.00 | 91 | 1017.2 |
| 20260502065503 | 9 | 230 | 1.6 | 4.8 | 0.00 | 0.08 | 0.00 | 91 | 1017.5 |
| 20260502065003 | 9 | 238 | 1.6 | 4.8 | 0.00 | 0.08 | 0.00 | 91 | 1017.2 |
| 20260502064524 | 9 | 245 | 1.6 | 4.8 | 0.00 | 0.08 | 0.00 | 91 | 1017.2 |
| 20260502064003 | 9 | 240 | 3.2 | 4.8 | 0.00 | 0.08 | 0.00 | 91 | 1017.3 |
| 20260502063503 | 9 | 238 | 3.2 | 4.8 | 0.00 | 0.08 | 0.00 | 91 | 1017.2 |
| 20260502063003 | 9 | 242 | 1.6 | 4.8 | 0.00 | 0.08 | 0.00 | 91 | 1017.1 |
| 20260502062503 | 9 | 248 | 1.6 | 4.8 | 0.00 | 0.08 | 0.00 | 92 | 1017.2 |
| 20260502062003 | 9 | 243 | 1.6 | 4.8 | 0.00 | 0.08 | 0.00 | 92 | 1017.2 |
| 20260502061503 | 9 | 231 | 1.6 | 6.4 | 0.00 | 0.08 | 0.00 | 92 | 1017.3 |
| 20260502061004 | 9 | 232 | 1.6 | 6.4 | 0.00 | 0.08 | 0.00 | 92 | 1017.1 |
| 20260502060503 | 9 | 237 | 1.6 | 4.8 | 0.00 | 0.08 | 0.00 | 92 | 1017.1 |
| 20260502060003 | 8 | 231 | 1.6 | 3.2 | 0.00 | 0.08 | 0.00 | 92 | 1017.2 |
| 20260502055503 | 8 | 235 | 1.6 | 4.8 | 0.00 | 0.08 | 0.00 | 92 | 1017.2 |
| 20260502055003 | 8 | 235 | 1.6 | 4.8 | 0.00 | 0.08 | 0.00 | 93 | 1017.0 |
| 20260502054503 | 8 | 231 | 1.6 | 4.8 | 0.00 | 0.08 | 0.00 | 93 | 1017.3 |
| 20260502054003 | 8 | 229 | 1.6 | 4.8 | 0.00 | 0.08 | 0.00 | 93 | 1017.2 |
| 20260502053524 | 8 | 230 | 1.6 | 4.8 | 0.00 | 0.08 | 0.00 | 93 | 1017.2 |
| 20260502053003 | 8 | 231 | 1.6 | 4.8 | 0.00 | 0.08 | 0.00 | 93 | 1017.2 |
| 20260502052503 | 8 | 225 | 1.6 | 3.2 | 0.00 | 0.08 | 0.00 | 93 | 1017.2 |
| 20260502052003 | 8 | 220 | 1.6 | 3.2 | 0.00 | 0.08 | 0.00 | 93 | 1017.4 |
| 20260502051503 | 8 | 221 | 0.0 | 3.2 | 0.00 | 0.08 | 0.00 | 94 | 1017.1 |
| 20260502051024 | 8 | 221 | 0.0 | 4.8 | 0.00 | 0.08 | 0.00 | 94 | 1017.2 |
| 20260502050524 | 8 | 221 | 0.0 | 4.8 | 0.00 | 0.08 | 0.00 | 94 | 1017.2 |
| 20260502050003 | 8 | 219 | 0.0 | 3.2 | 0.00 | 0.08 | 0.00 | 94 | 1017.3 |
| 20260502045503 | 8 | 214 | 0.0 | 3.2 | 0.00 | 0.08 | 0.00 | 94 | 1017.4 |
| 20260502044504 | 8 | 208 | 0.0 | 1.6 | 0.00 | 0.08 | 0.00 | 94 | 1017.5 |
| 20260502044003 | 8 | 224 | 0.0 | 1.6 | 0.00 | 0.08 | 0.00 | 94 | 1017.6 |
| 20260502043524 | 8 | 223 | 0.0 | 3.2 | 0.00 | 0.08 | 0.00 | 94 | 1017.4 |
| 20260502043004 | 8 | 234 | 1.6 | 3.2 | 0.00 | 0.08 | 0.00 | 94 | 1017.3 |
| 20260502042503 | 8 | 233 | 1.6 | 3.2 | 0.00 | 0.08 | 0.00 | 94 | 1017.4 |
| 20260502042024 | 8 | 217 | 0.0 | 3.2 | 0.00 | 0.08 | 0.00 | 94 | 1017.4 |
| 20260502041503 | 8 | 210 | 1.6 | 4.8 | 0.00 | 0.08 | 0.00 | 94 | 1017.4 |
| 20260502041024 | 8 | 207 | 1.6 | 4.8 | 0.00 | 0.08 | 0.00 | 94 | 1017.3 |
| 20260502040524 | 8 | 206 | 1.6 | 4.8 | 0.00 | 0.08 | 0.00 | 94 | 1017.4 |
| 20260502040024 | 8 | 207 | 0.0 | 3.2 | 0.00 | 0.08 | 0.00 | 94 | 1017.3 |
| 20260502035503 | 8 | 209 | 0.0 | 1.6 | 0.00 | 0.08 | 0.00 | 94 | 1017.3 |
| 20260502035003 | 8 | 207 | 0.0 | 1.6 | 0.00 | 0.08 | 0.00 | 94 | 1017.2 |
| 20260502034503 | 8 | 0 | 0.0 | 0.0 | 0.00 | 0.08 | 0.00 | 94 | 1017.4 |
| 20260502034003 | 8 | 0 | 0.0 | 0.0 | 0.00 | 0.08 | 0.00 | 94 | 1017.5 |
| 20260502033524 | 8 | 0 | 0.0 | 0.0 | 0.00 | 0.08 | 0.00 | 94 | 1017.4 |
| 20260502033003 | 8 | 207 | 0.0 | 1.6 | 0.00 | 0.08 | 0.00 | 94 | 1017.5 |
| 20260502032525 | 8 | 211 | 0.0 | 1.6 | 0.00 | 0.08 | 0.00 | 94 | 1017.4 |
| 20260502032024 | 8 | 219 | 0.0 | 3.2 | 0.00 | 0.08 | 0.00 | 94 | 1017.3 |
| 20260502031524 | 8 | 222 | 0.0 | 3.2 | 0.00 | 0.08 | 0.00 | 93 | 1017.3 |
| 20260502031024 | 8 | 228 | 0.0 | 1.6 | 0.00 | 0.08 | 0.00 | 94 | 1017.4 |
| 20260502030503 | 8 | 228 | 0.0 | 1.6 | 0.00 | 0.08 | 0.00 | 93 | 1017.1 |
| 20260502030003 | 8 | 226 | 0.0 | 3.2 | 0.00 | 0.08 | 0.00 | 93 | 1017.4 |
| 20260502025503 | 8 | 228 | 0.0 | 3.2 | 0.00 | 0.08 | 0.00 | 93 | 1017.6 |
| 20260502025003 | 9 | 232 | 0.0 | 3.2 | 0.00 | 0.08 | 0.00 | 93 | 1017.4 |
| 20260502024524 | 9 | 232 | 0.0 | 3.2 | 0.00 | 0.08 | 0.00 | 93 | 1017.3 |
| 20260502024024 | 9 | 229 | 0.0 | 3.2 | 0.00 | 0.08 | 0.00 | 93 | 1017.6 |
| 20260502023524 | 9 | 226 | 0.0 | 3.2 | 0.00 | 0.08 | 0.00 | 93 | 1017.4 |
| 20260502023003 | 8 | 225 | 0.0 | 3.2 | 0.00 | 0.08 | 0.00 | 93 | 1017.6 |
| 20260502022503 | 8 | 218 | 0.0 | 1.6 | 0.00 | 0.08 | 0.00 | 93 | 1017.6 |
| 20260502022003 | 8 | 0 | 0.0 | 0.0 | 0.00 | 0.08 | 0.00 | 93 | 1017.8 |
| 20260502021524 | 8 | 214 | 0.0 | 1.6 | 0.00 | 0.08 | 0.00 | 93 | 1017.7 |
| 20260502021024 | 8 | 218 | 0.0 | 1.6 | 0.00 | 0.08 | 0.00 | 93 | 1017.9 |
| 20260502020524 | 8 | 223 | 0.0 | 3.2 | 0.00 | 0.08 | 0.00 | 93 | 1017.8 |
| 20260502020003 | 9 | 221 | 1.6 | 3.2 | 0.00 | 0.08 | 0.00 | 93 | 1018.0 |
| 20260502015503 | 9 | 219 | 1.6 | 3.2 | 0.00 | 0.08 | 0.00 | 93 | 1018.0 |
| 20260502015003 | 9 | 228 | 1.6 | 4.8 | 0.00 | 0.08 | 0.00 | 93 | 1017.9 |
| 20260502014503 | 9 | 237 | 1.6 | 4.8 | 0.00 | 0.08 | 0.00 | 93 | 1018.1 |
| 20260502014003 | 9 | 237 | 0.0 | 3.2 | 0.00 | 0.08 | 0.00 | 93 | 1018.2 |
| 20260502013503 | 9 | 221 | 0.0 | 1.6 | 0.00 | 0.08 | 0.00 | 93 | 1017.9 |
| 20260502013003 | 10 | 221 | 0.0 | 1.6 | 0.00 | 0.08 | 0.00 | 93 | 1018.1 |
| 20260502012503 | 10 | 220 | 0.0 | 1.6 | 0.00 | 0.08 | 0.00 | 93 | 1018.3 |
| 20260502012003 | 9 | 0 | 0.0 | 0.0 | 0.00 | 0.08 | 0.00 | 93 | 1018.3 |
| 20260502011503 | 9 | 0 | 0.0 | 0.0 | 0.00 | 0.08 | 0.00 | 93 | 1018.3 |
| 20260502011003 | 9 | 0 | 0.0 | 0.0 | 0.00 | 0.08 | 0.00 | 93 | 1018.4 |
| 20260502010524 | 10 | 0 | 0.0 | 0.0 | 0.00 | 0.08 | 0.00 | 93 | 1018.5 |
| 20260502010003 | 9 | 0 | 0.0 | 0.0 | 0.00 | 0.08 | 0.00 | 93 | 1018.5 |
| 20260502005503 | 10 | 220 | 0.0 | 1.6 | 0.00 | 0.08 | 0.00 | 93 | 1018.3 |
| 20260502005003 | 10 | 220 | 0.0 | 1.6 | 0.00 | 0.08 | 0.00 | 93 | 1018.6 |
| 20260502004504 | 10 | 220 | 0.0 | 1.6 | 0.00 | 0.08 | 0.00 | 93 | 1018.3 |
| 20260502004003 | 10 | 220 | 0.0 | 1.6 | 0.00 | 0.08 | 0.00 | 93 | 1018.4 |
| 20260502003503 | 10 | 220 | 0.0 | 1.6 | 0.00 | 0.08 | 0.00 | 93 | 1018.7 |
| 20260502003024 | 10 | 220 | 0.0 | 3.2 | 0.00 | 0.08 | 0.00 | 93 | 1018.6 |
| 20260502002524 | 10 | 220 | 0.0 | 3.2 | 0.00 | 0.08 | 0.00 | 93 | 1018.5 |
| 20260502002003 | 10 | 221 | 0.0 | 3.2 | 0.00 | 0.08 | 0.00 | 93 | 1018.7 |
| 20260502001524 | 10 | 223 | 0.0 | 3.2 | 0.00 | 0.08 | 0.00 | 93 | 1018.7 |
| 20260502001003 | 10 | 231 | 0.0 | 3.2 | 0.00 | 0.08 | 0.00 | 93 | 1018.7 |
| 20260502000503 | 10 | 240 | 1.6 | 4.8 | 0.00 | 0.08 | 0.00 | 93 | 1018.7 |
| 20260502000004 | 10 | 237 | 1.6 | 4.8 | 0.00 | 0.08 | 0.00 | 93 | 1018.6 |
| 20260501235503 | 10 | 229 | 1.6 | 3.2 | 0.00 | 0.08 | 0.00 | 93 | 1018.8 |
| 20260501235003 | 10 | 232 | 1.6 | 3.2 | 0.00 | 0.08 | 0.00 | 93 | 1018.7 |
| 20260501234503 | 10 | 233 | 1.6 | 3.2 | 0.00 | 0.08 | 0.00 | 93 | 1018.6 |
| 20260501234003 | 10 | 235 | 1.6 | 3.2 | 0.00 | 0.08 | 0.00 | 93 | 1019.0 |
| 20260501233503 | 10 | 233 | 1.6 | 3.2 | 0.00 | 0.08 | 0.00 | 93 | 1018.6 |
| 20260501233003 | 10 | 238 | 1.6 | 4.8 | 0.00 | 0.08 | 0.00 | 93 | 1018.8 |
| 20260501232503 | 10 | 246 | 1.6 | 4.8 | 0.00 | 0.08 | 0.00 | 93 | 1018.8 |
| 20260501232003 | 10 | 259 | 1.6 | 4.8 | 0.00 | 0.08 | 0.00 | 93 | 1018.9 |
| 20260501231503 | 10 | 272 | 1.6 | 4.8 | 0.00 | 0.08 | 0.00 | 93 | 1018.8 |
| 20260501231003 | 10 | 273 | 1.6 | 4.8 | 0.00 | 0.08 | 0.00 | 93 | 1018.9 |
| 20260501230503 | 10 | 274 | 3.2 | 6.4 | 0.00 | 0.08 | 0.00 | 93 | 1018.9 |
| 20260501230003 | 10 | 271 | 3.2 | 6.4 | 0.00 | 0.08 | 0.00 | 93 | 1019.0 |
| 20260501225503 | 11 | 275 | 3.2 | 4.8 | 0.00 | 0.08 | 0.08 | 93 | 1018.8 |
| 20260501225003 | 11 | 279 | 1.6 | 4.8 | 0.00 | 0.08 | 0.08 | 93 | 1018.9 |
| 20260501224524 | 11 | 273 | 1.6 | 3.2 | 0.00 | 0.08 | 0.08 | 93 | 1018.9 |
| 20260501224003 | 11 | 275 | 0.0 | 3.2 | 0.00 | 0.08 | 0.08 | 93 | 1018.9 |
| 20260501223503 | 11 | 275 | 1.6 | 4.8 | 0.00 | 0.08 | 0.08 | 93 | 1018.7 |
| 20260501223003 | 10 | 276 | 1.6 | 4.8 | 0.00 | 0.08 | 0.08 | 93 | 1018.9 |
| 20260501222524 | 10 | 276 | 1.6 | 4.8 | 0.00 | 0.08 | 0.08 | 93 | 1019.2 |
| 20260501222003 | 11 | 275 | 3.2 | 4.8 | 0.00 | 0.08 | 0.08 | 93 | 1018.9 |
| 20260501221503 | 11 | 281 | 1.6 | 4.8 | 0.00 | 0.08 | 0.08 | 93 | 1019.0 |
| 20260501221003 | 11 | 289 | 1.6 | 4.8 | 0.00 | 0.08 | 0.08 | 93 | 1019.1 |
| 20260501220503 | 11 | 281 | 1.6 | 3.2 | 0.00 | 0.08 | 0.08 | 93 | 1019.0 |
| 20260501220024 | 11 | 276 | 1.6 | 3.2 | 0.00 | 0.08 | 0.08 | 93 | 1018.8 |
| 20260501215503 | 11 | 280 | 1.6 | 4.8 | 0.00 | 0.08 | 0.08 | 93 | 1019.0 |
| 20260501215003 | 11 | 279 | 3.2 | 4.8 | 0.00 | 0.08 | 0.08 | 93 | 1019.0 |
| 20260501214503 | 11 | 279 | 1.6 | 4.8 | 0.00 | 0.08 | 0.08 | 93 | 1019.0 |
| 20260501214024 | 11 | 282 | 1.6 | 4.8 | 0.00 | 0.08 | 0.08 | 93 | 1019.4 |
| 20260501213524 | 11 | 280 | 1.6 | 6.4 | 0.00 | 0.08 | 0.08 | 93 | 1019.1 |
| 20260501213003 | 11 | 279 | 1.6 | 6.4 | 0.00 | 0.08 | 0.08 | 93 | 1019.3 |
| 20260501212503 | 11 | 280 | 1.6 | 4.8 | 0.00 | 0.08 | 0.08 | 93 | 1019.1 |
| 20260501212003 | 11 | 279 | 0.0 | 3.2 | 0.00 | 0.08 | 0.08 | 93 | 1019.2 |
| 20260501211524 | 11 | 282 | 1.6 | 4.8 | 0.00 | 0.08 | 0.08 | 93 | 1019.0 |